Weather History for Trinity Center, CA

Change the Weather History Date:

Saturday, March 16, 2013

  Actual Average (KMHS) Record (KMHS)
Temperature  
Mean Temperature 10 °C 6 °C  
Max Temperature 19 °C 13 °C 25 °C (2007)
Min Temperature 1 °C -1 °C -10 °C (1927)
Degree Days  
Heating Degree Days 16 23  
Month to date heating degree days 381  
Since 1 July heating degree days 4356  
Cooling Degree Days 0 0  
Month to date cooling degree days 0  
Year to date cooling degree days 0  
Moisture  
Dew Point 1 °C    
Average Humidity 65    
Maximum Humidity 93    
Minimum Humidity 22    
Precipitation  
Precipitation 0.00 mm 5.08 mm 4.90 mm (1933)
Month to date precipitation 3.70  
Year to date precipitation 17.99  
Sea Level Pressure  
Sea Level Pressure 1021 hPa    
Wind  
Wind Speed 6 km/h (NNW)    
Max Wind Speed 26 km/h    
Max Gust Speed 48 km/h    
Visibility 16 kilometers    
Events      
T = Trace of Precipitation, MM = Missing Value Source: NWS Daily Summary

Daily Weather History Graph

Daily Weather History Graph

Search for Another Location

Airport:

Trip Planner

Search our weather history database for the weather conditions in past years. The results will help you decide how hot, cold, wet, or windy it might be!

Date:

Astronomy

Mar. 16, 2013 Rise Set
Actual Time 7:20 AM PDT 7:18 PM PDT
Civil Twilight 6:52 AM PDT 7:46 PM PDT
Nautical Twilight 6:20 AM PDT 8:18 PM PDT
Astronomical Twilight 5:48 AM PDT 8:50 PM PDT
Moon 9:51 AM PDT (3/16) No Moon Set
Length of Visible Light 12h 53m
Length of Day
11h 58m
Waxing Crescent, 24% of the Moon is Illuminated
Mar 16
Waxing Crescent
Mar 19
First Quarter
Mar 27
Full
Apr 2
Last Quarter
Apr 10
New

Hourly Weather History & Observations

Time (PDT) Temp. Windchill Dew Point Humidity Pressure Visibility Wind Dir Wind Speed Gust Speed Precip Events Conditions
12:15 AM 5.0 °C - 2.0 °C 81% 1022.9 hPa 16.1 km Calm Calm - N/A   Clear
12:35 AM 4.0 °C 2.8 °C 2.0 °C 87% 1022.9 hPa 16.1 km WSW 5.6 km/h / 1.5 m/s - N/A   Clear
12:55 AM 4.0 °C 2.8 °C 2.0 °C 87% 1022.9 hPa 16.1 km West 5.6 km/h / 1.5 m/s - N/A   Clear
1:15 AM 4.0 °C 2.8 °C 2.0 °C 87% 1022.9 hPa 16.1 km West 5.6 km/h / 1.5 m/s - N/A   Clear
1:35 AM 3.0 °C 1.6 °C 2.0 °C 93% 1022.9 hPa 16.1 km West 5.6 km/h / 1.5 m/s - N/A   Clear
1:55 AM 3.0 °C - 2.0 °C 93% 1023.2 hPa 16.1 km Calm Calm - N/A   Clear
2:15 AM 3.0 °C 1.6 °C 2.0 °C 93% 1023.2 hPa 16.1 km West 5.6 km/h / 1.5 m/s - N/A   Clear
2:35 AM 3.0 °C 1.6 °C 2.0 °C 93% 1023.2 hPa 16.1 km West 5.6 km/h / 1.5 m/s - N/A   Clear
2:55 AM 3.0 °C 1.0 °C 2.0 °C 93% 1022.9 hPa 16.1 km West 7.4 km/h / 2.1 m/s - N/A   Clear
3:15 AM 3.0 °C 1.6 °C 2.0 °C 93% 1022.9 hPa 16.1 km West 5.6 km/h / 1.5 m/s - N/A   Clear
3:35 AM 2.0 °C 0.5 °C 1.0 °C 93% 1022.6 hPa 16.1 km West 5.6 km/h / 1.5 m/s - N/A   Clear
3:55 AM 2.0 °C - 1.0 °C 93% 1022.2 hPa 16.1 km Calm Calm - N/A   Clear
4:15 AM 2.0 °C 0.5 °C 1.0 °C 93% 1022.2 hPa 16.1 km West 5.6 km/h / 1.5 m/s - N/A   Clear
4:35 AM 2.0 °C -0.2 °C 0.0 °C 87% 1022.6 hPa 16.1 km West 7.4 km/h / 2.1 m/s - N/A   Clear
4:55 AM 2.0 °C 0.5 °C 1.0 °C 93% 1022.2 hPa 16.1 km West 5.6 km/h / 1.5 m/s - N/A   Clear
5:15 AM 1.0 °C -0.7 °C 0.0 °C 93% 1022.2 hPa 16.1 km West 5.6 km/h / 1.5 m/s - N/A   Clear
5:35 AM 1.0 °C -1.9 °C 0.0 °C 93% 1021.9 hPa 16.1 km West 9.3 km/h / 2.6 m/s - N/A   Scattered Clouds
5:55 AM 1.0 °C -1.9 °C 0.0 °C 93% 1022.2 hPa 12.9 km West 9.3 km/h / 2.6 m/s - N/A   Mostly Cloudy
6:15 AM 1.0 °C -0.7 °C 0.0 °C 93% 1022.2 hPa 16.1 km West 5.6 km/h / 1.5 m/s - N/A   Scattered Clouds
6:35 AM 1.0 °C - 0.0 °C 93% 1022.2 hPa 14.5 km Calm Calm - N/A   Mostly Cloudy
6:50 AM 1.0 °C -1.4 °C 0.0 °C 93% 1021.9 hPa 16.1 km West 7.4 km/h / 2.1 m/s - N/A   Mostly Cloudy
7:15 AM 1.0 °C - 0.0 °C 93% 1022.6 hPa 16.1 km Calm Calm - N/A   Scattered Clouds
7:35 AM 1.0 °C - 0.0 °C 93% 1022.6 hPa 16.1 km Calm Calm - N/A   Mostly Cloudy
7:55 AM 2.0 °C 0.5 °C 0.0 °C 87% 1022.2 hPa 16.1 km West 5.6 km/h / 1.5 m/s - N/A   Overcast
8:15 AM 2.0 °C - 1.0 °C 93% 1021.9 hPa 16.1 km Calm Calm - N/A   Overcast
8:35 AM 3.0 °C - 2.0 °C 93% 1021.9 hPa 16.1 km Calm Calm - N/A   Overcast
8:55 AM 4.0 °C - 3.0 °C 93% 1022.2 hPa 14.5 km Calm Calm - N/A   Overcast
9:15 AM 4.0 °C - 3.0 °C 93% 1022.2 hPa 16.1 km Calm Calm - N/A   Overcast
9:35 AM 4.0 °C - 3.0 °C 93% 1022.6 hPa 16.1 km Calm Calm - N/A   Overcast
9:55 AM 5.0 °C - 4.0 °C 93% 1022.6 hPa 16.1 km Calm Calm - N/A   Overcast
10:15 AM 5.0 °C 3.9 °C 4.0 °C 93% 1022.6 hPa 16.1 km SE 5.6 km/h / 1.5 m/s - N/A   Mostly Cloudy
10:35 AM 6.0 °C 5.0 °C 4.0 °C 87% 1022.6 hPa 16.1 km SE 5.6 km/h / 1.5 m/s - N/A   Partly Cloudy
10:55 AM 7.0 °C - 4.0 °C 81% 1022.2 hPa 16.1 km Calm Calm - N/A   Clear
11:15 AM 8.0 °C 6.8 °C 3.0 °C 71% 1022.2 hPa 16.1 km NE 7.4 km/h / 2.1 m/s - N/A   Clear
11:35 AM 9.0 °C - 4.0 °C 71% 1021.9 hPa 16.1 km Calm Calm - N/A   Clear
11:55 AM 10.0 °C - 4.0 °C 66% 1021.2 hPa 16.1 km NE 5.6 km/h / 1.5 m/s - N/A   Clear
12:15 PM 12.0 °C - 4.0 °C 58% 1020.9 hPa 16.1 km NE 5.6 km/h / 1.5 m/s - N/A   Clear
12:35 PM 12.0 °C - 3.0 °C 54% 1020.5 hPa 16.1 km Calm Calm - N/A   Clear
12:55 PM 12.0 °C - 3.0 °C 54% 1020.2 hPa 16.1 km SSE 7.4 km/h / 2.1 m/s - N/A   Clear
1:15 PM 14.0 °C - 4.0 °C 51% 1019.9 hPa 16.1 km ENE 7.4 km/h / 2.1 m/s - N/A   Clear
1:35 PM 15.0 °C - 4.0 °C 48% 1019.5 hPa 16.1 km NNW 7.4 km/h / 2.1 m/s - N/A   Clear
1:55 PM 18.0 °C - -4.0 °C 22% 1019.2 hPa 16.1 km West 16.7 km/h / 4.6 m/s 29.6 km/h / 8.2 m/s N/A   Partly Cloudy
2:10 PM 18.0 °C - -4.0 °C 22% 1018.8 hPa 16.1 km WNW 14.8 km/h / 4.1 m/s 38.9 km/h / 10.8 m/s N/A   Mostly Cloudy
2:35 PM 19.0 °C - -3.0 °C 23% 1018.8 hPa 16.1 km NNW 14.8 km/h / 4.1 m/s 33.3 km/h / 9.3 m/s N/A   Partly Cloudy
2:55 PM 19.0 °C - -3.0 °C 23% 1018.5 hPa 16.1 km NNW 24.1 km/h / 6.7 m/s 35.2 km/h / 9.8 m/s N/A   Mostly Cloudy
3:15 PM 19.0 °C - -3.0 °C 23% 1018.5 hPa 16.1 km NW 24.1 km/h / 6.7 m/s 37.0 km/h / 10.3 m/s N/A   Mostly Cloudy
3:35 PM 18.0 °C - -2.0 °C 26% 1018.8 hPa 16.1 km NNW 22.2 km/h / 6.2 m/s 33.3 km/h / 9.3 m/s N/A   Partly Cloudy
3:55 PM 18.0 °C - -2.0 °C 26% 1018.8 hPa 16.1 km North 9.3 km/h / 2.6 m/s - N/A   Scattered Clouds
4:15 PM 18.0 °C - 0.0 °C 30% 1018.5 hPa 16.1 km North 14.8 km/h / 4.1 m/s 25.9 km/h / 7.2 m/s N/A   Overcast
4:35 PM 18.0 °C - 0.0 °C 30% 1018.5 hPa 16.1 km North 11.1 km/h / 3.1 m/s - N/A   Mostly Cloudy
4:55 PM 18.0 °C - 1.0 °C 32% 1018.5 hPa 16.1 km NNE 16.7 km/h / 4.6 m/s 25.9 km/h / 7.2 m/s N/A   Overcast
5:15 PM 17.0 °C - 0.0 °C 32% 1018.5 hPa 16.1 km WNW 11.1 km/h / 3.1 m/s 38.9 km/h / 10.8 m/s N/A   Overcast
5:35 PM 17.0 °C - 0.0 °C 32% 1018.8 hPa 16.1 km ESE 9.3 km/h / 2.6 m/s - N/A   Overcast
5:55 PM 16.0 °C - 0.0 °C 34% 1018.8 hPa 16.1 km NW 9.3 km/h / 2.6 m/s - N/A   Overcast
6:15 PM 15.0 °C - 1.0 °C 39% 1019.2 hPa 16.1 km NNW 5.6 km/h / 1.5 m/s - N/A   Overcast
6:35 PM 14.0 °C - 2.0 °C 44% 1019.2 hPa 16.1 km North 13.0 km/h / 3.6 m/s - N/A   Overcast
6:55 PM 13.0 °C - 2.0 °C 47% 1019.5 hPa 16.1 km NNE 14.8 km/h / 4.1 m/s - N/A   Mostly Cloudy
7:10 PM 13.0 °C - 2.0 °C 47% 1019.5 hPa 16.1 km NE 16.7 km/h / 4.6 m/s 29.6 km/h / 8.2 m/s N/A   Mostly Cloudy
7:35 PM 12.0 °C - 2.0 °C 51% 1019.5 hPa 16.1 km NNE 16.7 km/h / 4.6 m/s 35.2 km/h / 9.8 m/s N/A   Mostly Cloudy
7:55 PM 12.0 °C - 2.0 °C 51% 1019.5 hPa 16.1 km NNE 14.8 km/h / 4.1 m/s 33.3 km/h / 9.3 m/s N/A   Mostly Cloudy
8:15 PM 12.0 °C - 1.0 °C 47% 1019.5 hPa 16.1 km North 11.1 km/h / 3.1 m/s 37.0 km/h / 10.3 m/s N/A   Scattered Clouds
8:35 PM 11.0 °C - 1.0 °C 50% 1019.9 hPa 16.1 km North 9.3 km/h / 2.6 m/s - N/A   Partly Cloudy
8:55 PM 9.0 °C - 2.0 °C 62% 1019.9 hPa 16.1 km WNW 11.1 km/h / 3.1 m/s - N/A   Scattered Clouds
9:15 PM 10.0 °C - 0.0 °C 50% 1019.9 hPa 16.1 km NNE 13.0 km/h / 3.6 m/s - N/A   Partly Cloudy
9:35 PM 10.0 °C - 0.0 °C 50% 1020.2 hPa 16.1 km NE 22.2 km/h / 6.2 m/s 48.2 km/h / 13.4 m/s N/A   Clear
9:55 PM 10.0 °C - 0.0 °C 50% 1020.2 hPa 16.1 km NNE 13.0 km/h / 3.6 m/s - N/A   Clear
10:15 PM 10.0 °C - 0.0 °C 50% 1020.2 hPa 16.1 km North 16.7 km/h / 4.6 m/s 29.6 km/h / 8.2 m/s N/A   Clear
10:35 PM 10.0 °C - 0.0 °C 50% 1020.5 hPa 16.1 km NNE 25.9 km/h / 7.2 m/s 38.9 km/h / 10.8 m/s N/A   Clear
10:55 PM 10.0 °C - 0.0 °C 50% 1020.5 hPa 16.1 km North 11.1 km/h / 3.1 m/s 38.9 km/h / 10.8 m/s N/A   Clear
11:15 PM 10.0 °C - -2.0 °C 43% 1020.5 hPa 16.1 km NE 16.7 km/h / 4.6 m/s 37.0 km/h / 10.3 m/s N/A   Clear
11:35 PM 10.0 °C - -2.0 °C 43% 1020.9 hPa 16.1 km North 16.7 km/h / 4.6 m/s 35.2 km/h / 9.8 m/s N/A   Clear
11:55 PM 9.0 °C - -3.0 °C 43% 1020.9 hPa 16.1 km NNW 13.0 km/h / 3.6 m/s 31.5 km/h / 8.7 m/s N/A   Clear